[[{"header":{"parameterUnit":"m.s-1","parameterCategory":2,"la1":30.2991,"la2":30.254,"lo1":-89.0895,"lo2":-89.0444,"dy":0.0017,"dx":0.0017,"nx":28,"ny":28,"refTime":"2024-09-26T09:00:00:Z","depth":"0","parameterNumber":2,"parameterNumberName":"U-component_of_CURRENTS"},"data":[0,0,0,0,0,0,0,0,0,0,0,0,0,0,0,0,0,0,0,0,0,0,0,0,0,0,0,0,0,0,0,0,0,0,0,0,0,0,0,0,0,0,0,0,0,0,0,0,0,0,0,0,0,0,0,0,0,0,0.2155,0.2155,0,0.2162,0.2162,0.2162,0.2165,0.2166,0.2166,0.2166,0.2144,0.2143,0.2143,0,0,0,0,0,0,0,0,0,0,0,0,0,0.2072,0.2073,0.2155,0.2155,0.2156,0.2162,0.2162,0.2162,0.2165,0.2166,0.2166,0.2167,0.2145,0.2144,0.2142,0,0,0,0,0,0,0,0,0,0,0,0,0,0.2092,0.2074,0.2155,0.2161,0.2162,0.2162,0.2162,0.2161,0.2165,0.2166,0.2166,0.2167,0.2145,0.2144,0.2142,0.2122,0,0,0.2138,0.2137,0,0,0,0,0,0,0,0,0.2091,0.2095,0.216,0.2161,0.2162,0.2167,0.2125,0.2148,0.2165,0.2159,0.2166,0.2167,0.2152,0.215,0.2144,0.2121,0.212,0.2138,0.2137,0.2136,0.2136,0,0,0,0,0,0,0,0.209,0.2094,0.2153,0.216,0.2162,0.214,0.2143,0.2129,0.2148,0.216,0.2161,0.2169,0.2151,0.2145,0.2144,0.212,0.2138,0.2137,0.2136,0.2135,0.2125,0.2126,0,0,0,0,0,0,0.2101,0.2094,0.2153,0.2154,0.2132,0.2141,0.2145,0.2161,0.2149,0.2149,0.2168,0.2169,0.2148,0.2145,0.2143,0.2163,0.2136,0.2135,0.2134,0.2124,0.2125,0.2126,0,0,0,0,0,0,0.2099,0.2107,0.2153,0.2126,0.2131,0.2143,0.216,0.2161,0.2162,0.2157,0.2155,0.2169,0.2148,0.2145,0.2143,0.216,0.2134,0.2133,0.2124,0.2125,0.2125,0.2174,0,0,0,0,0,0,0.2097,0.2106,0.2114,0.2128,0.2134,0.2157,0.216,0.2161,0.2167,0.2168,0.2157,0.2155,0.2148,0.2145,0.2141,0.2158,0.2132,0.2123,0.2124,0.2125,0.2172,0.2176,0.218,0,0,0,0,0,0.2094,0.2106,0.2115,0.2122,0.2147,0.2158,0.2158,0.2164,0.2167,0.2166,0.2166,0.2156,0.215,0.2144,0.214,0.2156,0.2122,0.2124,0.2125,0.217,0.2175,0.218,0,0,0,0,0,0,0.2068,0.2108,0.2118,0.214,0.2151,0.216,0.2162,0.2165,0.2163,0.2164,0.2157,0.2155,0.2163,0.2148,0.2143,0.2157,0.2136,0.2137,0.2172,0.2177,0.2181,0.2191,0.2131,0,0,0,0,0,0.2069,0.2091,0.2118,0.2132,0.2142,0.2151,0.2154,0.216,0.2165,0.2164,0.2159,0.2157,0.2162,0.2161,0.2156,0.2156,0.217,0.2166,0.217,0.2174,0.218,0.222,0.2229,0.213,0.213,0.213,0,0,0.2062,0.2087,0.2098,0.2128,0.2137,0.2149,0.2153,0.2163,0.2174,0.2161,0.2167,0.2168,0.2165,0.2175,0.2177,0.2167,0.2211,0.2176,0.2179,0.2183,0.2223,0.2233,0.2241,0.2131,0.2131,0.2131,0,0,0.2052,0.2084,0.2094,0.2109,0.2131,0.2145,0.215,0.2164,0.2173,0.2179,0.2183,0.2197,0.2187,0.2201,0.2205,0.2227,0.2233,0.2224,0.2255,0.2294,0.2303,0.2311,0.2351,0.2362,0.2227,0.2227,0.2227,0,0.2039,0.2063,0.2094,0.2105,0.2121,0.2146,0.2154,0.2169,0.2178,0.2195,0.2186,0.2211,0.2203,0.224,0.225,0.2239,0.2263,0.2236,0.2302,0.231,0.2317,0.2356,0.2368,0.2229,0.2229,0.2229,0.2228,0,0.2036,0.2055,0.2062,0.2095,0.2113,0.2126,0.216,0.2179,0.2195,0.2213,0.2249,0.225,0.227,0.2273,0.2266,0.2319,0.2321,0.2305,0.2292,0.2331,0.2369,0.238,0.2233,0.2232,0.2231,0.2231,0,0,0.2012,0.2052,0.2054,0.2068,0.2112,0.2126,0.2163,0.2205,0.2238,0.2256,0.2299,0.2315,0.233,0.2335,0.234,0.2371,0.2442,0.2362,0.2363,0.2409,0.2541,0.2564,0.2578,0.2444,0.2446,0.2447,0.2551,0,0.1999,0.2013,0.2044,0.2064,0.2079,0.2127,0.216,0.2204,0.2246,0.2294,0.233,0.2363,0.2352,0.2368,0.2404,0.2435,0.2473,0.2416,0.249,0.2493,0.2514,0.2592,0.2607,0.2702,0.2562,0.2564,0.2565,0,0.1986,0.2002,0.201,0.206,0.2072,0.2089,0.2165,0.2197,0.2282,0.2317,0.2376,0.2408,0.2474,0.2446,0.2539,0.2507,0.2528,0.2547,0.2551,0.2563,0.2537,0.2638,0.2728,0.2731,0.2582,0.2581,0.258,0,0.1949,0.1983,0.199,0.2004,0.2059,0.208,0.2118,0.2198,0.2253,0.2338,0.2394,0.2465,0.2518,0.2561,0.2616,0.2583,0.2717,0.2672,0.2714,0.2716,0.2738,0.2738,0.2844,0.2733,0.2733,0.2732,0.2732,0,0.1927,0.1934,0.197,0.1973,0.1999,0.205,0.2099,0.2153,0.2254,0.2323,0.2401,0.2483,0.2551,0.264,0.2657,0.2747,0.2758,0.2746,0.2755,0.2755,0.2756,0.2763,0.2722,0.2736,0.2736,0.2735,0.2734,0,0.1881,0.1903,0.1912,0.1958,0.1976,0.1992,0.2088,0.2134,0.2234,0.2332,0.2368,0.2526,0.2645,0.2719,0.2807,0.2816,0.283,0.2893,0.2893,0.29,0.2919,0.2879,0.2786,0.2697,0.2959,0.296,0.2962,0,0.1856,0.1851,0.1886,0.1894,0.1911,0.1954,0.199,0.21,0.2165,0.2357,0.2407,0.2576,0.2698,0.2875,0.2929,0.3005,0.2891,0.3033,0.2962,0.2955,0.2916,0.2716,0.2631,0.3015,0.3016,0.3017,0.3018,0,0.1805,0.181,0.1818,0.184,0.1865,0.191,0.1976,0.2034,0.2169,0.2284,0.2451,0.2577,0.2789,0.292,0.304,0.3071,0.2937,0.3058,0.3059,0.2988,0.2768,0.2676,0.2906,0.3029,0.3028,0.3027,0.3027,0.3026,0.1759,0.1753,0.1764,0.1787,0.1817,0.1861,0.1885,0.1984,0.21,0.2265,0.2417,0.2604,0.2883,0.3083,0.3074,0.3156,0.2999,0.3144,0.3104,0.2906,0.2792,0.3047,0.3168,0.3167,0.3167,0.3167,0.3167,0,0.1709,0.171,0.172,0.1742,0.1757,0.1799,0.1872,0.1903,0.2006,0.221,0.2366,0.2711,0.2931,0.3099,0.33,0.3249,0.3026,0.3199,0.2953,0.2869,0.3159,0.314,0.325,0.325,0.325,0.325,0.325,0.325,0.1679,0.1667,0.1681,0.1684,0.1701,0.1708,0.1737,0.1798,0.1927,0.2155,0.2365,0.2567,0.2994,0.3365,0.3444,0.3348,0.3072,0.2977,0.2861,0.3156,0.3147,0.3139,0.3116,0.3219,0.3218,0.2496,0.2492,0.2488]},{"header":{"parameterUnit":"m.s-1","parameterCategory":2,"la1":30.2991,"la2":30.254,"lo1":-89.0895,"lo2":-89.0444,"dy":0.0017,"dx":0.0017,"nx":28,"ny":28,"refTime":"2024-09-26T09:00:00:Z","depth":"0","parameterNumber":3,"parameterNumberName":"V-component_of_CURRENTS"},"data":[0,0,0,0,0,0,0,0,0,0,0,0,0,0,0,0,0,0,0,0,0,0,0,0,0,0,0,0,0,0,0,0,0,0,0,0,0,0,0,0,0,0,0,0,0,0,0,0,0,0,0,0,0,0,0,0,0,0,0.0003,0.0003,0,-0.0043,-0.0044,-0.0045,-0.0087,-0.0087,-0.0088,-0.0088,-0.0166,-0.0168,-0.0169,0,0,0,0,0,0,0,0,0,0,0,0,0,0.0011,0.0011,0.0004,0.0003,0.0003,-0.0043,-0.0044,-0.0045,-0.0087,-0.0087,-0.0088,-0.0088,-0.0165,-0.0168,-0.017,0,0,0,0,0,0,0,0,0,0,0,0,0,-0.0011,0.0011,0.0004,-0.0023,-0.0025,-0.0043,-0.0044,-0.0045,-0.0087,-0.0087,-0.0088,-0.0088,-0.0165,-0.0167,-0.017,-0.0176,0,0,-0.0178,-0.0179,0,0,0,0,0,0,0,0,-0.001,-0.0012,-0.0018,-0.0021,-0.0024,-0.0058,-0.007,-0.009,-0.0087,-0.0065,-0.0088,-0.0089,-0.0131,-0.0137,-0.0147,-0.0179,-0.0183,-0.0178,-0.018,-0.0181,-0.0182,0,0,0,0,0,0,0,-0.0008,-0.001,-0.0017,-0.0019,-0.0022,-0.0048,-0.0051,-0.0074,-0.0097,-0.0067,-0.007,-0.0072,-0.0133,-0.0144,-0.0149,-0.0184,-0.0178,-0.018,-0.0182,-0.0183,-0.0243,-0.0243,0,0,0,0,0,0,0.0004,-0.0008,-0.0015,-0.0018,-0.0016,-0.0047,-0.0051,-0.0048,-0.0096,-0.0103,-0.0072,-0.0074,-0.0139,-0.0146,-0.0152,-0.0163,-0.0181,-0.0183,-0.0185,-0.0243,-0.0243,-0.0243,0,0,0,0,0,0,0.0004,0.0004,-0.0013,-0.0013,-0.0017,-0.0046,-0.0043,-0.0049,-0.0059,-0.0099,-0.0107,-0.0075,-0.014,-0.0148,-0.0173,-0.0166,-0.0185,-0.0187,-0.0243,-0.0243,-0.0243,-0.0184,0,0,0,0,0,0,0.0005,0.0005,0.0011,-0.0012,-0.0017,-0.0017,-0.0042,-0.0049,-0.0059,-0.0062,-0.0105,-0.0112,-0.0141,-0.0169,-0.0175,-0.017,-0.0189,-0.0243,-0.0243,-0.0243,-0.0186,-0.0182,-0.0179,0,0,0,0,0,0.0005,0.0027,0.0012,0.0011,-0.0007,-0.0016,-0.0021,-0.0045,-0.0058,-0.0057,-0.009,-0.0111,-0.0174,-0.0171,-0.0179,-0.0174,-0.0243,-0.0243,-0.0243,-0.0188,-0.0183,-0.0179,0,0,0,0,0,0,0.0039,0.0023,0.0007,0.0023,0.0004,-0.0022,-0.0019,-0.0039,-0.0064,-0.0067,-0.011,-0.012,-0.0141,-0.0166,-0.0161,-0.0193,-0.0212,-0.0214,-0.0168,-0.0164,-0.016,-0.0137,-0.0191,0,0,0,0,0,0.0048,0.0055,0.0032,0.0043,0.0038,0.0008,0.0001,-0.0016,-0.004,-0.0051,-0.0083,-0.0117,-0.0147,-0.0161,-0.0191,-0.0204,-0.0231,-0.0208,-0.0204,-0.0201,-0.0189,-0.023,-0.0228,-0.0244,-0.0244,-0.0244,0,0,0.0065,0.0057,0.0061,0.005,0.0034,0.0037,0.0003,0.0,-0.0001,-0.0056,-0.0066,-0.0105,-0.0149,-0.0167,-0.0178,-0.0187,-0.0211,-0.0201,-0.0198,-0.0187,-0.0229,-0.0228,-0.0227,-0.0244,-0.0244,-0.0244,0,0,0.0106,0.0094,0.0112,0.01,0.0083,0.0064,0.0066,0.0039,0.0023,0.0006,-0.0036,-0.0068,-0.011,-0.014,-0.0161,-0.0154,-0.0192,-0.0167,-0.0127,-0.0167,-0.0166,-0.0165,-0.0195,-0.0197,-0.0163,-0.0163,-0.0163,0,0.0124,0.0142,0.0116,0.0127,0.0126,0.0081,0.0098,0.0077,0.0043,0.0035,0.0011,-0.0056,-0.0095,-0.0119,-0.012,-0.0144,-0.0171,-0.0138,-0.0161,-0.0161,-0.0161,-0.0192,-0.0195,-0.016,-0.016,-0.0161,-0.0161,0,0.0174,0.0185,0.0196,0.0192,0.0187,0.0195,0.0163,0.0152,0.0124,0.0098,0.0067,0.0007,-0.003,-0.0054,-0.0086,-0.0106,-0.0126,-0.0152,-0.0167,-0.0156,-0.0189,-0.0194,-0.0156,-0.0157,-0.0158,-0.0159,0,0,0.0222,0.0231,0.0233,0.0243,0.0222,0.0226,0.0224,0.021,0.0213,0.0162,0.016,0.0093,0.0056,0.003,-0.0021,-0.0059,-0.009,-0.0101,-0.0104,-0.0121,-0.0172,-0.0181,-0.0187,-0.0123,-0.0123,-0.0124,-0.0194,0,0.0266,0.0307,0.0296,0.0328,0.0345,0.0309,0.0312,0.0291,0.0261,0.0245,0.0176,0.0151,0.0089,0.007,0.0022,-0.006,-0.01,-0.0068,-0.0189,-0.0192,-0.0194,-0.0192,-0.018,-0.0241,-0.0199,-0.0199,-0.02,0,0.0313,0.0334,0.0378,0.0397,0.0402,0.041,0.0409,0.0405,0.0366,0.0344,0.03,0.0247,0.0186,0.0129,0.0002,0.0024,-0.0064,-0.0134,-0.0139,-0.0168,-0.0209,-0.0248,-0.0252,-0.043,-0.0207,-0.0207,-0.0206,0,0.0355,0.039,0.0429,0.0433,0.0445,0.0457,0.0457,0.0434,0.0447,0.0404,0.0408,0.032,0.0285,0.0163,0.0025,0.001,-0.0116,-0.0156,-0.0247,-0.0249,-0.0272,-0.0274,-0.0452,-0.0246,-0.0246,-0.0246,-0.0245,0,0.0399,0.0429,0.0452,0.047,0.0518,0.0504,0.0544,0.0527,0.0525,0.0551,0.0461,0.0467,0.0291,0.0201,0.0057,-0.0099,-0.0094,-0.0234,-0.0267,-0.0251,-0.0251,-0.0433,-0.0521,-0.0248,-0.0248,-0.0247,-0.0247,0,0.043,0.0446,0.0493,0.0524,0.0537,0.0565,0.0609,0.0641,0.0623,0.0655,0.065,0.0578,0.0457,0.0281,0.0089,-0.0043,-0.0298,-0.0259,-0.0221,-0.0248,-0.05,-0.0583,-0.0766,-0.0854,-0.0373,-0.0373,-0.0374,0,0.0449,0.0476,0.0532,0.0568,0.0583,0.0629,0.0669,0.0681,0.0729,0.0731,0.0762,0.0665,0.0625,0.0346,0.0083,-0.0163,-0.0326,-0.0313,-0.0343,-0.0509,-0.0627,-0.0684,-0.0748,-0.0355,-0.0355,-0.0355,-0.0355,0,0.048,0.0498,0.0539,0.0619,0.0672,0.0745,0.0807,0.0869,0.0891,0.0929,0.0969,0.094,0.0666,0.0433,0.0087,-0.0096,-0.0433,-0.0326,-0.0516,-0.0638,-0.0693,-0.0793,-0.0312,-0.0358,-0.0358,-0.0357,-0.0357,-0.0357,0.0498,0.0538,0.0599,0.0678,0.0751,0.086,0.0944,0.1026,0.1126,0.122,0.1158,0.118,0.08,0.0334,0.0032,-0.0471,-0.048,-0.0619,-0.0709,-0.0752,-0.0835,-0.0348,-0.042,-0.042,-0.042,-0.042,-0.042,0,0.0526,0.0581,0.0658,0.0768,0.0873,0.09,0.1043,0.1151,0.1296,0.1392,0.1442,0.1328,0.0839,0.0348,-0.0341,-0.0753,-0.091,-0.0986,-0.1083,-0.1134,-0.0721,-0.0719,-0.0835,-0.0835,-0.0834,-0.0834,-0.0834,-0.0834,0.0544,0.0627,0.0681,0.0858,0.0946,0.1109,0.1207,0.136,0.1485,0.1673,0.1753,0.1773,0.1445,0.007,-0.084,-0.1082,-0.1392,-0.1473,-0.1621,-0.1361,-0.1334,-0.1308,-0.1329,-0.1571,-0.1572,-0.1989,-0.1993,-0.1996]}],[{"header":{"parameterUnit":"m.s-1","parameterCategory":2,"la1":30.2991,"la2":30.254,"lo1":-89.0895,"lo2":-89.0444,"dy":0.0017,"dx":0.0017,"nx":28,"ny":28,"refTime":"2024-09-26T09:00:00:Z","depth":"2","parameterNumber":2,"parameterNumberName":"U-component_of_CURRENTS"},"data":[0,0,0,0,0,0,0,0,0,0,0,0,0,0,0,0,0,0,0,0,0,0,0,0,0,0,0,0,0,0,0,0,0,0,0,0,0,0,0,0,0,0,0,0,0,0,0,0,0,0,0,0,0,0,0,0,0,0,0.1928,0.1929,0,0.1936,0.1936,0.1936,0.195,0.1951,0.1951,0.1952,0.1944,0.1944,0.1943,0,0,0,0,0,0,0,0,0,0,0,0,0,0.1857,0.1859,0.1928,0.1929,0.1929,0.1936,0.1936,0.1936,0.195,0.1951,0.1951,0.1952,0.1945,0.1944,0.1943,0,0,0,0,0,0,0,0,0,0,0,0,0,0.1877,0.1859,0.1928,0.1939,0.194,0.1936,0.1936,0.1936,0.195,0.1951,0.1952,0.1952,0.1945,0.1944,0.1943,0.1921,0,0,0.194,0.1939,0,0,0,0,0,0,0,0,0.1876,0.1879,0.1937,0.1938,0.194,0.1946,0.1909,0.1931,0.195,0.1943,0.1952,0.1953,0.1945,0.1944,0.194,0.192,0.192,0.194,0.1939,0.1938,0.1938,0,0,0,0,0,0,0,0.1874,0.1878,0.1929,0.1938,0.1939,0.192,0.1924,0.1912,0.1937,0.1944,0.1946,0.1951,0.1945,0.1941,0.194,0.192,0.194,0.1939,0.1938,0.1938,0.1938,0.1938,0,0,0,0,0,0,0.1882,0.1877,0.1929,0.1929,0.1912,0.1922,0.1926,0.1941,0.1938,0.1939,0.195,0.1952,0.1942,0.1941,0.1939,0.1967,0.1938,0.1937,0.1937,0.1937,0.1938,0.1939,0,0,0,0,0,0,0.1881,0.1887,0.1928,0.1905,0.1909,0.1923,0.1939,0.194,0.1947,0.1943,0.1943,0.1957,0.1942,0.1941,0.1946,0.1965,0.1937,0.1936,0.1936,0.1937,0.1938,0.1987,0,0,0,0,0,0,0.1879,0.1886,0.1897,0.1906,0.1911,0.1934,0.1938,0.194,0.195,0.1952,0.1949,0.1948,0.1943,0.1947,0.1945,0.1963,0.1935,0.1936,0.1937,0.1938,0.1985,0.199,0.1994,0,0,0,0,0,0.1876,0.1889,0.1898,0.1904,0.1927,0.1934,0.1935,0.1944,0.195,0.1953,0.1958,0.1949,0.1953,0.1947,0.1944,0.1962,0.1935,0.1937,0.1938,0.1983,0.1989,0.1994,0,0,0,0,0,0,0.1856,0.1892,0.1902,0.1924,0.1933,0.1938,0.1943,0.1948,0.1952,0.1957,0.1952,0.1952,0.1965,0.1953,0.1946,0.1965,0.1944,0.1945,0.1979,0.1985,0.1989,0.1999,0.1934,0,0,0,0,0,0.186,0.1884,0.1904,0.1919,0.1927,0.1935,0.1939,0.1947,0.1953,0.1956,0.1956,0.1958,0.1965,0.1967,0.1965,0.1969,0.198,0.198,0.1984,0.1988,0.1994,0.203,0.2039,0.1943,0.1943,0.1943,0,0,0.1854,0.1878,0.189,0.1917,0.1925,0.1936,0.1939,0.195,0.1963,0.1953,0.1968,0.1971,0.1969,0.1983,0.1988,0.1977,0.2023,0.199,0.1994,0.1997,0.2033,0.2042,0.205,0.1944,0.1944,0.1944,0,0,0.1846,0.1879,0.1891,0.1905,0.1925,0.1937,0.1944,0.1957,0.1969,0.198,0.1986,0.2003,0.1999,0.2013,0.2016,0.2041,0.2046,0.204,0.2071,0.2106,0.2115,0.2123,0.2158,0.2168,0.2043,0.2043,0.2043,0,0.1838,0.1861,0.1891,0.1902,0.1918,0.1941,0.195,0.1965,0.1978,0.1996,0.1992,0.2021,0.2016,0.2051,0.2063,0.2053,0.2075,0.2052,0.2114,0.2122,0.2129,0.2163,0.2174,0.2045,0.2045,0.2045,0.2045,0,0.1833,0.1855,0.1863,0.1897,0.1915,0.1928,0.1959,0.1981,0.2002,0.202,0.2059,0.2062,0.2085,0.2088,0.2082,0.2132,0.2134,0.2117,0.2103,0.2142,0.2175,0.2186,0.2049,0.2048,0.2047,0.2047,0,0,0.1813,0.1853,0.1857,0.1873,0.1917,0.193,0.1968,0.2009,0.2042,0.2065,0.2109,0.2128,0.2144,0.215,0.2154,0.2183,0.225,0.2175,0.2175,0.2216,0.2339,0.2352,0.2364,0.2251,0.2253,0.2254,0.2346,0,0.1802,0.1818,0.1848,0.1873,0.1888,0.1936,0.1969,0.2013,0.2056,0.2105,0.2139,0.2175,0.2166,0.2184,0.2217,0.2244,0.2278,0.2227,0.229,0.2292,0.2304,0.2377,0.2225,0.2296,0.2356,0.2358,0.2359,0,0.1789,0.1808,0.182,0.1872,0.1885,0.1905,0.198,0.2013,0.2094,0.213,0.2189,0.222,0.2283,0.2257,0.2342,0.2315,0.2332,0.2347,0.235,0.2352,0.2325,0.2265,0.2313,0.2377,0.2375,0.2374,0.2373,0,0.1757,0.1794,0.1805,0.182,0.1877,0.1901,0.1939,0.2017,0.207,0.2154,0.2209,0.2277,0.2329,0.2366,0.2415,0.2385,0.2505,0.2462,0.2491,0.2491,0.2369,0.2357,0.2516,0.2516,0.2515,0.2515,0.2515,0,0.1738,0.175,0.1789,0.1795,0.1825,0.1876,0.1928,0.198,0.2078,0.2144,0.222,0.2295,0.2361,0.2441,0.2453,0.2529,0.2542,0.2521,0.2526,0.2383,0.2371,0.2435,0.2425,0.2519,0.2518,0.2517,0.2517,0,0.1696,0.172,0.1735,0.1786,0.1805,0.1826,0.1921,0.1965,0.2064,0.2158,0.2194,0.234,0.2447,0.2515,0.259,0.2593,0.2641,0.2652,0.2489,0.2474,0.2589,0.258,0.2698,0.2699,0.27,0.2701,0.2702,0,0.1673,0.1672,0.1714,0.1726,0.1747,0.1793,0.1829,0.1937,0.1998,0.218,0.2226,0.2383,0.2489,0.2641,0.2667,0.2725,0.2707,0.2596,0.2507,0.262,0.2613,0.2602,0.2591,0.2361,0.2359,0.2357,0.2356,0,0.1626,0.1637,0.1649,0.1676,0.1705,0.175,0.1816,0.1871,0.2001,0.2109,0.2262,0.2372,0.2543,0.2569,0.2661,0.2654,0.2577,0.2567,0.2738,0.2347,0.2312,0.2302,0.2301,0.2341,0.2343,0.2344,0.2345,0.2345,0.1585,0.1583,0.1599,0.1627,0.1659,0.1702,0.1725,0.1817,0.1924,0.2064,0.2205,0.2317,0.2412,0.2498,0.2459,0.2429,0.2583,0.2467,0.2468,0.2471,0.2424,0.2395,0.243,0.2432,0.2434,0.2435,0.2437,0,0.1537,0.1544,0.1557,0.1584,0.1597,0.1644,0.1712,0.1729,0.1819,0.1972,0.2101,0.2048,0.214,0.2201,0.2166,0.2206,0.2122,0.2101,0.1971,0.1993,0.201,0.1932,0.1812,0.1809,0.1806,0.1803,0,0,0.1509,0.1501,0.1515,0.152,0.1542,0.1547,0.1574,0.1608,0.1693,0.1762,0.183,0.2051,0.218,0.1953,0.1966,0.1877,0.1893,0.1809,0.2332,0.2204,0.2216,0.2273,0.2187,0,0,0,0,0]},{"header":{"parameterUnit":"m.s-1","parameterCategory":2,"la1":30.2991,"la2":30.254,"lo1":-89.0895,"lo2":-89.0444,"dy":0.0017,"dx":0.0017,"nx":28,"ny":28,"refTime":"2024-09-26T09:00:00:Z","depth":"2","parameterNumber":3,"parameterNumberName":"V-component_of_CURRENTS"},"data":[0,0,0,0,0,0,0,0,0,0,0,0,0,0,0,0,0,0,0,0,0,0,0,0,0,0,0,0,0,0,0,0,0,0,0,0,0,0,0,0,0,0,0,0,0,0,0,0,0,0,0,0,0,0,0,0,0,0,0.003,0.003,0,-0.002,-0.0021,-0.0021,-0.0065,-0.0065,-0.0065,-0.0066,-0.0145,-0.0147,-0.0149,0,0,0,0,0,0,0,0,0,0,0,0,0,0.0041,0.0041,0.003,0.003,0.003,-0.002,-0.0021,-0.0021,-0.0065,-0.0065,-0.0065,-0.0066,-0.0144,-0.0146,-0.0149,0,0,0,0,0,0,0,0,0,0,0,0,0,0.0016,0.0041,0.003,0.0003,0.0001,-0.0019,-0.0021,-0.0022,-0.0064,-0.0065,-0.0065,-0.0066,-0.0144,-0.0146,-0.0149,-0.0156,0,0,-0.0157,-0.0159,0,0,0,0,0,0,0,0,0.0018,0.0016,0.0008,0.0005,0.0002,-0.0035,-0.0046,-0.0068,-0.0064,-0.0042,-0.0066,-0.0066,-0.0109,-0.0115,-0.0125,-0.016,-0.0164,-0.0158,-0.0159,-0.016,-0.0161,0,0,0,0,0,0,0,0.0019,0.0017,0.0009,0.0007,0.0004,-0.0023,-0.0026,-0.0051,-0.0074,-0.0044,-0.0047,-0.0049,-0.0111,-0.0123,-0.0128,-0.0165,-0.0157,-0.016,-0.0162,-0.0163,-0.0228,-0.0228,0,0,0,0,0,0,0.0033,0.0019,0.001,0.0007,0.0011,-0.0022,-0.0026,-0.0024,-0.0073,-0.0081,-0.0048,-0.0051,-0.0118,-0.0124,-0.0131,-0.0146,-0.016,-0.0163,-0.0165,-0.0228,-0.0228,-0.0228,0,0,0,0,0,0,0.0033,0.0033,0.0012,0.0013,0.0009,-0.0021,-0.0019,-0.0025,-0.0037,-0.0076,-0.0085,-0.0054,-0.0118,-0.0127,-0.0154,-0.0149,-0.0164,-0.0167,-0.0227,-0.0228,-0.0228,-0.0174,0,0,0,0,0,0,0.0034,0.0033,0.0038,0.0014,0.001,0.0006,-0.0018,-0.0025,-0.0036,-0.004,-0.0084,-0.0092,-0.0119,-0.0149,-0.0156,-0.0153,-0.0169,-0.0227,-0.0228,-0.0228,-0.0176,-0.0172,-0.0169,0,0,0,0,0,0.0034,0.0053,0.0039,0.0038,0.0018,0.0007,0.0002,-0.0023,-0.0036,-0.0037,-0.007,-0.009,-0.0155,-0.0151,-0.016,-0.0157,-0.0227,-0.0227,-0.0228,-0.0177,-0.0173,-0.017,0,0,0,0,0,0,0.0066,0.005,0.0034,0.0048,0.0028,0.0,0.0002,-0.0019,-0.0045,-0.0049,-0.0091,-0.0101,-0.0124,-0.0148,-0.0143,-0.0178,-0.0195,-0.0197,-0.0154,-0.015,-0.0147,-0.0126,-0.0171,0,0,0,0,0,0.0075,0.008,0.0057,0.0066,0.006,0.0029,0.0021,0.0004,-0.0022,-0.0034,-0.0066,-0.01,-0.0131,-0.0146,-0.0175,-0.0191,-0.0218,-0.0197,-0.0193,-0.0191,-0.018,-0.0222,-0.0221,-0.0228,-0.0228,-0.0228,0,0,0.0091,0.0082,0.0085,0.0072,0.0056,0.0055,0.0023,0.0018,0.0014,-0.0038,-0.0053,-0.009,-0.0133,-0.0154,-0.0166,-0.0173,-0.0203,-0.0191,-0.0188,-0.0179,-0.0222,-0.0221,-0.022,-0.0229,-0.0229,-0.0229,0,0,0.0127,0.0116,0.0131,0.0117,0.0099,0.0079,0.008,0.0051,0.0035,0.0015,-0.0025,-0.0058,-0.0101,-0.0132,-0.0153,-0.015,-0.0185,-0.0161,-0.0127,-0.0167,-0.0167,-0.0167,-0.0196,-0.0199,-0.0158,-0.0158,-0.0158,0,0.0144,0.0158,0.0133,0.014,0.0137,0.0094,0.0107,0.0084,0.0048,0.0039,0.0018,-0.005,-0.0089,-0.0116,-0.0118,-0.0141,-0.0167,-0.0136,-0.0162,-0.0163,-0.0163,-0.0194,-0.0198,-0.0156,-0.0156,-0.0156,-0.0157,0,0.0186,0.0194,0.0204,0.0196,0.0188,0.0193,0.0161,0.0148,0.0121,0.0095,0.0061,0.0003,-0.0035,-0.0058,-0.0088,-0.0112,-0.0129,-0.0153,-0.0167,-0.0159,-0.0192,-0.0197,-0.0152,-0.0153,-0.0154,-0.0154,0,0,0.023,0.0234,0.0235,0.0243,0.0219,0.0221,0.0214,0.0197,0.0198,0.0147,0.0142,0.0075,0.0041,0.0015,-0.0034,-0.0072,-0.0105,-0.0109,-0.0113,-0.013,-0.0188,-0.0198,-0.0205,-0.0136,-0.0136,-0.0137,-0.0207,0,0.0267,0.0301,0.0289,0.0314,0.0328,0.0292,0.0292,0.0269,0.0239,0.022,0.0153,0.0127,0.0069,0.0053,0.0003,-0.0076,-0.0116,-0.0083,-0.02,-0.0203,-0.0207,-0.021,-0.0191,-0.0252,-0.0212,-0.0213,-0.0214,0,0.0307,0.0325,0.0362,0.0377,0.038,0.0385,0.0381,0.0375,0.0333,0.0311,0.0267,0.0216,0.0154,0.0102,-0.0025,-0.0001,-0.0085,-0.0152,-0.0157,-0.0186,-0.0223,-0.0256,-0.0263,-0.0223,-0.0222,-0.0221,-0.0221,0,0.0347,0.0375,0.0409,0.0412,0.0419,0.0429,0.0427,0.0401,0.0413,0.0367,0.0372,0.0282,0.0248,0.0129,-0.0006,-0.0017,-0.0146,-0.0181,-0.027,-0.0272,-0.0287,-0.0289,-0.0271,-0.0271,-0.0271,-0.027,-0.027,0,0.0386,0.0412,0.0432,0.0447,0.0491,0.0475,0.0512,0.0493,0.0488,0.0511,0.0422,0.0424,0.0252,0.0161,0.0023,-0.0131,-0.0126,-0.026,-0.0291,-0.0268,-0.0267,-0.0268,-0.0267,-0.0273,-0.0273,-0.0272,-0.0272,0,0.0415,0.0428,0.0471,0.0497,0.0509,0.0536,0.0577,0.0605,0.0586,0.0614,0.0609,0.0531,0.0409,0.0237,0.0047,-0.008,-0.0234,-0.0291,-0.0245,-0.027,-0.0342,-0.0337,-0.04,-0.0401,-0.0402,-0.0403,-0.0403,0,0.0432,0.0456,0.0509,0.0544,0.0557,0.0601,0.0639,0.0647,0.0691,0.0686,0.0714,0.0614,0.0564,0.0287,0.0033,-0.0207,-0.0237,-0.034,-0.0365,-0.0331,-0.0356,-0.035,-0.0344,-0.0367,-0.0367,-0.0368,-0.0368,0,0.0461,0.0479,0.0517,0.0595,0.0645,0.0714,0.0772,0.0829,0.0846,0.0877,0.0905,0.0866,0.0594,0.0354,0.0019,-0.0144,-0.0302,-0.0352,-0.0335,-0.0331,-0.0305,-0.0327,-0.0322,-0.0369,-0.0369,-0.0369,-0.0369,-0.0369,0.048,0.0518,0.0577,0.0653,0.0723,0.0826,0.0904,0.0976,0.1064,0.1133,0.1068,0.1031,0.0716,0.031,-0.0004,-0.0322,-0.0315,-0.0415,-0.0413,-0.0411,-0.0388,-0.0364,-0.0435,-0.0435,-0.0436,-0.0436,-0.0436,0,0.0507,0.056,0.0635,0.0739,0.0838,0.0867,0.0999,0.1088,0.1213,0.1263,0.1288,0.1029,0.0727,0.038,-0.0102,-0.0395,-0.0417,-0.0471,-0.0441,-0.0437,-0.0435,-0.0413,-0.0467,-0.0468,-0.0468,-0.0469,0,0,0.0524,0.0603,0.0654,0.0823,0.0908,0.106,0.1152,0.1271,0.1352,0.1425,0.1414,0.1321,0.0867,0.0522,0.0096,-0.0181,-0.0229,-0.0227,-0.0172,-0.0084,-0.0077,-0.0377,-0.0335,0,0,0,0,0]}],[{"header":{"parameterUnit":"m.s-1","parameterCategory":2,"la1":30.2991,"la2":30.254,"lo1":-89.0895,"lo2":-89.0444,"dy":0.0017,"dx":0.0017,"nx":28,"ny":28,"refTime":"2024-09-26T09:00:00:Z","depth":"4","parameterNumber":2,"parameterNumberName":"U-component_of_CURRENTS"},"data":[0,0,0,0,0,0,0,0,0,0,0,0,0,0,0,0,0,0,0,0,0,0,0,0,0,0,0,0,0,0,0,0,0,0,0,0,0,0,0,0,0,0,0,0,0,0,0,0,0,0,0,0,0,0,0,0,0,0,0.1018,0.1019,0,0.1154,0.1156,0.1157,0.1234,0.1234,0.1235,0.1235,0.1304,0.1306,0.1307,0,0,0,0,0,0,0,0,0,0,0,0,0,0.0805,0.0809,0.1017,0.1019,0.1021,0.1154,0.1156,0.1157,0.1234,0.1234,0.1235,0.1236,0.1304,0.1306,0.1307,0,0,0,0,0,0,0,0,0,0,0,0,0,0.0912,0.081,0.1017,0.1078,0.1085,0.1154,0.1156,0.1158,0.1234,0.1234,0.1235,0.1236,0.1303,0.1305,0.1307,0.1303,0,0,0.1313,0.1314,0,0,0,0,0,0,0,0,0.0906,0.0919,0.1067,0.1074,0.1082,0.1181,0.1107,0.1204,0.1233,0.1174,0.1235,0.1236,0.1258,0.1264,0.1284,0.1307,0.131,0.1314,0.1315,0.1316,0.1316,0,0,0,0,0,0,0,0.0899,0.0914,0.1068,0.1069,0.1078,0.1093,0.1109,0.1125,0.1206,0.1179,0.1186,0.1206,0.1262,0.1282,0.1286,0.1311,0.1314,0.1315,0.1317,0.1317,0.1403,0.1404,0,0,0,0,0,0,0.0889,0.0907,0.1064,0.1073,0.0998,0.1096,0.1114,0.1146,0.1208,0.1219,0.1205,0.1209,0.1278,0.1284,0.1289,0.1358,0.1316,0.1318,0.1319,0.1402,0.1403,0.1404,0,0,0,0,0,0,0.0884,0.0902,0.1059,0.0995,0.1016,0.11,0.1134,0.1148,0.1201,0.1229,0.1239,0.1248,0.1279,0.1286,0.1331,0.1358,0.1318,0.132,0.1401,0.1402,0.1404,0.1451,0,0,0,0,0,0,0.0877,0.0899,0.0925,0.0995,0.102,0.1121,0.1134,0.115,0.1212,0.1219,0.1268,0.1274,0.128,0.1328,0.1333,0.1361,0.1322,0.1399,0.1401,0.1403,0.1448,0.1454,0.1459,0,0,0,0,0,0.0869,0.0904,0.0926,0.0945,0.1051,0.1123,0.1137,0.1196,0.1213,0.1244,0.1275,0.1274,0.1344,0.1331,0.1336,0.1365,0.1398,0.1401,0.1403,0.1445,0.1453,0.1459,0,0,0,0,0,0,0.0844,0.0918,0.0943,0.1004,0.1067,0.1138,0.1179,0.1211,0.1262,0.1275,0.129,0.1299,0.1347,0.1348,0.1333,0.1395,0.137,0.1373,0.14,0.1407,0.1412,0.141,0.1323,0,0,0,0,0,0.0845,0.0884,0.0959,0.1013,0.1047,0.1115,0.1154,0.1196,0.1248,0.1274,0.1303,0.1331,0.1356,0.1377,0.1397,0.1432,0.1433,0.1453,0.1458,0.1463,0.1465,0.1487,0.1494,0.1412,0.1412,0.1412,0,0,0.0851,0.0898,0.0922,0.1008,0.1064,0.1118,0.1142,0.1218,0.1259,0.1269,0.1334,0.1355,0.137,0.1412,0.1433,0.1421,0.149,0.1466,0.147,0.1469,0.149,0.1498,0.1505,0.1414,0.1414,0.1413,0,0,0.0878,0.0927,0.0968,0.1019,0.1106,0.1143,0.1169,0.1252,0.1289,0.1348,0.1363,0.1401,0.1444,0.1461,0.1472,0.1518,0.1517,0.1528,0.1558,0.158,0.1587,0.1593,0.1616,0.1623,0.1532,0.1532,0.1532,0,0.0878,0.0947,0.0994,0.1049,0.1092,0.1155,0.1209,0.1254,0.1338,0.1366,0.1376,0.1448,0.1464,0.1507,0.1527,0.1531,0.1545,0.1532,0.1588,0.1593,0.1599,0.162,0.1628,0.1535,0.1535,0.1534,0.1534,0,0.0937,0.0994,0.1029,0.1105,0.1154,0.1217,0.1279,0.133,0.1373,0.1412,0.1477,0.1503,0.1545,0.1557,0.1559,0.1608,0.1607,0.1591,0.157,0.161,0.163,0.1637,0.1538,0.1538,0.1537,0.1536,0,0,0.0922,0.1041,0.1055,0.1096,0.119,0.1235,0.13,0.1372,0.1416,0.1481,0.1534,0.158,0.1603,0.1615,0.1627,0.1647,0.1701,0.1643,0.1643,0.1664,0.176,0.1691,0.1692,0.1701,0.1702,0.1703,0.1763,0,0.0954,0.1052,0.1102,0.1186,0.1238,0.1298,0.1346,0.1414,0.1469,0.1531,0.1569,0.1624,0.1622,0.1653,0.1675,0.1698,0.1721,0.1687,0.1719,0.172,0.1653,0.1698,0.1707,0.1768,0.177,0.1771,0.1772,0,0.0992,0.1049,0.1139,0.1223,0.1252,0.1302,0.1387,0.1442,0.1527,0.1572,0.1633,0.1668,0.1726,0.1709,0.177,0.1753,0.1764,0.177,0.1772,0.1693,0.1664,0.1718,0.1785,0.1784,0.1783,0.1782,0.1781,0,0.0959,0.107,0.1137,0.1172,0.1275,0.1319,0.1373,0.1459,0.1515,0.1606,0.1661,0.172,0.1775,0.1793,0.1829,0.1807,0.1884,0.185,0.1796,0.1791,0.1814,0.1806,0.1883,0.1882,0.1882,0.1882,0.1882,0,0.0964,0.102,0.1131,0.1168,0.1233,0.1309,0.1384,0.1446,0.1545,0.1609,0.1684,0.1742,0.1801,0.1856,0.1856,0.1861,0.1911,0.181,0.1803,0.1834,0.1828,0.1819,0.1811,0.1884,0.1884,0.1883,0.1883,0,0.0927,0.1008,0.108,0.1189,0.1226,0.1272,0.1394,0.1441,0.1547,0.1636,0.1674,0.179,0.1858,0.1907,0.195,0.1901,0.1902,0.1888,0.194,0.1934,0.1784,0.1778,0.1819,0.1817,0.1816,0.1815,0.1813,0,0.0923,0.096,0.1078,0.1116,0.1172,0.1255,0.1306,0.1427,0.1483,0.1649,0.1682,0.1805,0.1864,0.1878,0.1924,0.1931,0.1906,0.1892,0.181,0.1789,0.1779,0.1775,0.1771,0.1811,0.181,0.181,0.181,0,0.0889,0.0939,0.0992,0.1071,0.1135,0.1202,0.1292,0.1334,0.1468,0.1578,0.1662,0.1712,0.1796,0.183,0.1865,0.1856,0.1887,0.1874,0.1875,0.1799,0.1779,0.177,0.1768,0.1804,0.1805,0.1805,0.1806,0,0.0856,0.0877,0.0951,0.1012,0.1084,0.1133,0.1192,0.1271,0.135,0.1531,0.1553,0.1678,0.1781,0.1794,0.1818,0.182,0.1779,0.1702,0.1712,0.1719,0.1658,0.1617,0.1594,0,0,0,0,0,0.0816,0.0838,0.0887,0.0953,0.1018,0.1069,0.1174,0.1236,0.137,0.1395,0.1477,0.1546,0.1611,0.1675,0.1655,0.1766,0.1779,0.1735,0.1693,0.1773,0.1779,0.1717,0,0,0,0,0,0,0.0791,0.0835,0.0861,0.089,0.0923,0.0994,0.1059,0.1149,0.1178,0.1314,0.1359,0.1459,0.1541,0.1607,0.1627,0.1645,0.1589,0.1814,0.181,0.1769,0.1775,0.178,0.1718,0,0,0,0,0]},{"header":{"parameterUnit":"m.s-1","parameterCategory":2,"la1":30.2991,"la2":30.254,"lo1":-89.0895,"lo2":-89.0444,"dy":0.0017,"dx":0.0017,"nx":28,"ny":28,"refTime":"2024-09-26T09:00:00:Z","depth":"4","parameterNumber":3,"parameterNumberName":"V-component_of_CURRENTS"},"data":[0,0,0,0,0,0,0,0,0,0,0,0,0,0,0,0,0,0,0,0,0,0,0,0,0,0,0,0,0,0,0,0,0,0,0,0,0,0,0,0,0,0,0,0,0,0,0,0,0,0,0,0,0,0,0,0,0,0,0.013,0.0129,0,0.0062,0.0061,0.006,0.0022,0.0022,0.0022,0.0022,-0.005,-0.0052,-0.0054,0,0,0,0,0,0,0,0,0,0,0,0,0,0.0182,0.0181,0.013,0.0129,0.0128,0.0062,0.0061,0.006,0.0022,0.0022,0.0022,0.0022,-0.005,-0.0052,-0.0054,0,0,0,0,0,0,0,0,0,0,0,0,0,0.0141,0.0181,0.013,0.0102,0.0099,0.0062,0.0061,0.006,0.0022,0.0022,0.0022,0.0022,-0.0049,-0.0052,-0.0055,-0.0071,0,0,-0.0063,-0.0065,0,0,0,0,0,0,0,0,0.0143,0.0139,0.0107,0.0104,0.01,0.0051,0.0053,0.0016,0.0022,0.005,0.0022,0.0022,-0.0016,-0.0022,-0.0036,-0.0074,-0.0077,-0.0064,-0.0065,-0.0066,-0.0067,0,0,0,0,0,0,0,0.0146,0.0141,0.0102,0.0106,0.0102,0.0077,0.0072,0.0045,0.0018,0.0048,0.0045,0.0039,-0.0018,-0.0033,-0.0038,-0.0078,-0.0063,-0.0066,-0.0068,-0.0069,-0.0145,-0.0145,0,0,0,0,0,0,0.0158,0.0144,0.0104,0.01,0.0123,0.0077,0.007,0.0066,0.0018,0.0011,0.0039,0.0037,-0.0028,-0.0034,-0.004,-0.0065,-0.0066,-0.0069,-0.0071,-0.0144,-0.0145,-0.0145,0,0,0,0,0,0,0.016,0.0155,0.0107,0.0121,0.0113,0.0076,0.0072,0.0065,0.0049,0.0011,0.0004,0.003,-0.0028,-0.0036,-0.0065,-0.0068,-0.007,-0.0073,-0.0144,-0.0144,-0.0145,-0.0112,0,0,0,0,0,0,0.0161,0.0156,0.0157,0.0122,0.0113,0.0087,0.0072,0.0064,0.0046,0.0043,0.0001,-0.0006,-0.0029,-0.006,-0.0067,-0.0072,-0.0075,-0.0144,-0.0144,-0.0145,-0.0113,-0.0111,-0.011,0,0,0,0,0,0.0164,0.0166,0.0157,0.0152,0.0115,0.0087,0.008,0.0053,0.0046,0.0038,0.0011,-0.0004,-0.0069,-0.0063,-0.0071,-0.0076,-0.0143,-0.0144,-0.0145,-0.0113,-0.0112,-0.011,0,0,0,0,0,0,0.0187,0.0161,0.0151,0.0145,0.0119,0.0081,0.0072,0.0055,0.0026,0.0025,-0.0009,-0.0018,-0.0045,-0.0066,-0.0058,-0.0101,-0.0109,-0.0111,-0.0082,-0.0081,-0.008,-0.0067,-0.0077,0,0,0,0,0,0.0193,0.0189,0.0158,0.0153,0.0142,0.0108,0.0093,0.0075,0.0046,0.0033,0.0005,-0.0026,-0.0055,-0.007,-0.0099,-0.0122,-0.0144,-0.0131,-0.013,-0.0128,-0.0124,-0.0166,-0.0167,-0.0147,-0.0147,-0.0147,0,0,0.0201,0.0187,0.0184,0.0157,0.0136,0.0121,0.0098,0.0079,0.0066,0.003,0.0007,-0.0022,-0.006,-0.0086,-0.01,-0.0104,-0.0145,-0.0129,-0.0128,-0.0125,-0.0167,-0.0168,-0.017,-0.0148,-0.0148,-0.0148,0,0,0.0211,0.0201,0.0199,0.0181,0.0152,0.0131,0.0128,0.0091,0.0075,0.005,0.002,-0.001,-0.0052,-0.0081,-0.0101,-0.011,-0.0137,-0.0119,-0.0103,-0.0143,-0.0145,-0.0147,-0.0172,-0.0177,-0.0118,-0.0118,-0.0118,0,0.022,0.0215,0.0193,0.0183,0.0174,0.0139,0.0133,0.011,0.0069,0.0059,0.0048,-0.0018,-0.005,-0.0086,-0.0089,-0.0107,-0.0129,-0.0104,-0.014,-0.0143,-0.0145,-0.0171,-0.0177,-0.0117,-0.0117,-0.0117,-0.0117,0,0.0222,0.0221,0.0218,0.0199,0.0185,0.0175,0.0144,0.0128,0.0109,0.0084,0.0049,0.0002,-0.0035,-0.0054,-0.0074,-0.0108,-0.0117,-0.0133,-0.0141,-0.0145,-0.0172,-0.0178,-0.0115,-0.0115,-0.0116,-0.0116,0,0,0.0234,0.0223,0.0222,0.0226,0.0195,0.0188,0.017,0.0146,0.0143,0.0096,0.0084,0.0024,0.0002,-0.0022,-0.0058,-0.0095,-0.0132,-0.0117,-0.012,-0.0135,-0.0211,-0.02,-0.0206,-0.0155,-0.0156,-0.0156,-0.022,0,0.0241,0.0245,0.0232,0.0237,0.0237,0.0212,0.0204,0.0179,0.0155,0.0134,0.0078,0.0054,0.0013,0.0001,-0.0047,-0.0109,-0.0147,-0.0113,-0.021,-0.0212,-0.0198,-0.0213,-0.016,-0.0225,-0.0226,-0.0227,-0.0228,0,0.0243,0.0249,0.026,0.0271,0.0269,0.0268,0.026,0.0247,0.0208,0.0191,0.0148,0.0108,0.0048,0.0017,-0.0097,-0.0072,-0.0136,-0.0189,-0.0193,-0.0198,-0.0214,-0.0223,-0.0239,-0.0238,-0.0238,-0.0237,-0.0236,0,0.0264,0.027,0.0288,0.0287,0.0287,0.0294,0.0292,0.0266,0.0272,0.0229,0.0232,0.0145,0.0117,0.0015,-0.0091,-0.0095,-0.0215,-0.0234,-0.0288,-0.0287,-0.0291,-0.0288,-0.0316,-0.0316,-0.0316,-0.0316,-0.0316,0,0.0274,0.0289,0.0306,0.0314,0.0346,0.0331,0.0357,0.034,0.0331,0.0344,0.0269,0.0258,0.0116,0.0033,-0.0077,-0.0196,-0.0207,-0.0286,-0.0306,-0.0275,-0.027,-0.0295,-0.0292,-0.0318,-0.0318,-0.0317,-0.0317,0,0.0287,0.0295,0.0323,0.0344,0.0357,0.0379,0.0415,0.0433,0.0417,0.0431,0.0426,0.0345,0.0234,0.009,-0.0072,-0.0161,-0.0286,-0.0326,-0.027,-0.0286,-0.0336,-0.033,-0.0393,-0.0394,-0.0394,-0.0394,-0.0394,0,0.0292,0.0307,0.0354,0.0385,0.0398,0.0437,0.0468,0.0473,0.05,0.0485,0.0498,0.0405,0.0331,0.0122,-0.0046,-0.0257,-0.0288,-0.0349,-0.0359,-0.0332,-0.0346,-0.0339,-0.0334,-0.0394,-0.0394,-0.0394,-0.0395,0,0.0304,0.0324,0.0352,0.042,0.0466,0.052,0.0567,0.0598,0.0604,0.0594,0.057,0.0454,0.0327,0.0141,-0.002,-0.0175,-0.0311,-0.0352,-0.0353,-0.0363,-0.0334,-0.0346,-0.034,-0.0395,-0.0395,-0.0395,-0.0395,0,0.0316,0.0345,0.0393,0.0453,0.0519,0.0587,0.0608,0.0644,0.0669,0.0654,0.0642,0.0496,0.0406,0.0183,0.003,-0.0119,-0.0164,-0.0211,-0.0221,-0.0222,-0.016,-0.0098,-0.0104,0,0,0,0,0,0.0323,0.0363,0.0424,0.0496,0.0566,0.061,0.0669,0.0685,0.0697,0.0695,0.0675,0.0557,0.0332,0.023,0.0085,0.0007,-0.0203,-0.0171,-0.0265,-0.0399,-0.0398,-0.0356,0,0,0,0,0,0,0.0329,0.0384,0.0424,0.0525,0.0586,0.0667,0.0711,0.0719,0.072,0.0706,0.0593,0.0526,0.0308,0.0424,0.0086,0.0037,-0.0042,-0.0281,-0.0284,-0.04,-0.0399,-0.0398,-0.0354,0,0,0,0,0]}]]